This is the latest recevied weather packets stored in our database for station/object HB9DDE-10. If no packets are shown the sender has not sent any weather packets the latest 10 day(s).
| Time | Temp. | Humidity | Pressure | Rain* | Wind** | Luminosity | Snow |
|---|---|---|---|---|---|---|---|
| 1777639429 | 23.33° C | 39% | 1024.4 hPa | 0 mm | - | - | - |
| 1777639118 | 22.78° C | 37% | 1024.4 hPa | 0 mm | - | - | - |
| 1777638827 | 22.78° C | 38% | 1024.5 hPa | 0 mm | - | - | - |
| 1777638517 | 23.33° C | 38% | 1024.5 hPa | 0 mm | - | - | - |
| 1777638232 | 22.78° C | 38% | 1024.5 hPa | 0 mm | - | - | - |
| 1777637921 | 22.78° C | 39% | 1024.5 hPa | 0 mm | - | - | - |
| 1777637632 | 22.78° C | 38% | 1024.5 hPa | 0 mm | - | - | - |
| 1777637321 | 22.78° C | 39% | 1024.6 hPa | 0 mm | - | - | - |
| 1777637013 | 22.78° C | 37% | 1024.6 hPa | 0 mm | - | - | - |
| 1777636721 | 22.78° C | 36% | 1024.6 hPa | 0 mm | - | - | - |
| 1777636430 | 22.78° C | 37% | 1024.7 hPa | 0 mm | - | - | - |
| 1777636119 | 21.67° C | 38% | 1024.8 hPa | 0 mm | - | - | - |
| 1777635813 | 21.67° C | 36% | 1024.8 hPa | 0 mm | - | - | - |
| 1777635523 | 21.67° C | 37% | 1024.9 hPa | 0 mm | - | - | - |
| 1777635213 | 21.11° C | 41% | 1025 hPa | 0 mm | - | - | - |
| 1777634925 | 20.56° C | 38% | 1025 hPa | 0 mm | - | - | - |
| 1777634613 | 20° C | 38% | 1025.1 hPa | 0 mm | - | - | - |
| 1777634326 | 20° C | 39% | 1025.1 hPa | 0 mm | - | - | - |
| 1777634017 | 20° C | 38% | 1025.1 hPa | 0 mm | - | - | - |
| 1777633727 | 19.44° C | 40% | 1025.2 hPa | 0 mm | - | - | - |
| 1777633417 | 19.44° C | 39% | 1025.2 hPa | 0 mm | - | - | - |
| 1777632828 | 18.89° C | 39% | 1025.4 hPa | 0 mm | - | - | - |
| 1777632518 | 18.89° C | 42% | 1025.4 hPa | 0 mm | - | - | - |
| 1777632267 | 18.89° C | 38% | 1025.5 hPa | 0 mm | - | - | - |
| 1777631913 | 18.89° C | 39% | 1025.5 hPa | 0 mm | - | - | - |
* Rain latest hour (hover to see other rain measurements)
** Current wind speed in m/s (hover to see current wind gust speed)